Location: Alvediston
(51.0078°N, 2.0364°W)
Time: 15:38:55
(UTC+00:00)

STARLINK-31 - Pass Details

Date: 27 February 2020
Orbit: 528 x 531 km, 53.0° (Epoch: 28 March)

Event Time Altitude Azimuth Distance (km) Brightness Sun altitude
Rises 19:08:18 0° 275° (W) 2,666 9.2 -13.9°
Reaches altitude 10° 19:10:32 10° 278° (W) 1,777 7.7 -14.3°
Maximum altitude 19:14:32 64° 1° (N) 590 3.7 -14.9°
Enters shadow 19:16:35 27° 75° (ENE) 1,039 4.5 -15.2°
